EW4728 Weather Reports


time (UTC)temp
F
wind
direction
speed
knots
gust
knots
rain 1hr
in
rain 24hr
in
rain mn
in
humidity
%
barometer
mb
20260509133029 58 245 1.7 10.4 0.00 0.00 0.00 88 987.9
20260509130030 56 216 5.2 8.7 0.00 0.00 0.00 91 988.1
20260509123029 55 256 1.7 7.8 0.00 0.00 0.00 93 987.7
20260509120031 54 215 1.7 4.3 0.00 0.00 0.00 96 987.8
20260509113029 53 215 0.9 2.6 0.00 0.00 0.00 97 986.7
20260509100030 53 227 0.9 3.5 0.00 0.00 0.00 96 987.6
20260509093029 53 227 1.7 2.6 0.00 0.00 0.00 95 987.7
20260509090029 54 227 0.9 3.5 0.00 0.00 0.00 94 988.1
20260509083029 54 227 0.9 3.5 0.00 0.00 0.00 94 988.0
20260509070030 55 227 1.7 3.5 0.00 0.00 0.00 91 988.5
20260509063031 55 227 0.9 2.6 0.00 0.00 0.00 89 988.7
20260509060029 56 228 1.7 4.3 0.00 0.00 0.00 88 989.0
20260509053029 57 227 1.7 3.5 0.00 0.00 0.00 87 989.3
20260509050029 57 227 0.9 5.2 0.00 0.00 0.00 85 989.2
20260509043029 58 227 0.0 5.2 0.00 0.00 0.00 84 989.3
20260509040029 59 263 2.6 6.1 0.00 0.00 0.00 82 989.6
20260509033029 60 258 1.7 5.2 0.00 0.00 0.00 80 989.8
20260509030029 61 257 2.6 8.7 0.00 0.00 0.00 76 989.7
20260509023029 62 249 1.7 6.1 0.00 0.00 0.00 71 989.9
20260509020029 63 215 2.6 5.2 0.00 0.00 0.00 70 989.6
20260509013029 64 244 1.7 7.8 0.00 0.00 0.00 68 989.1
20260509010029 65 240 0.9 6.1 0.00 0.00 0.00 58 989.4
20260509003029 66 240 0.9 7.0 0.00 0.00 0.00 55 989.1
20260509000029 68 243 0.9 9.6 0.00 0.00 0.00 52 989.2
20260508233030 69 258 5.2 11.3 0.00 0.00 0.00 49 989.3
20260508230029 70 236 2.6 7.0 0.00 0.00 0.00 49 989.3
20260508223030 70 230 0.0 5.2 0.00 0.00 0.00 50 989.5
20260508220029 72 238 0.9 8.7 0.00 0.00 0.00 45 989.6
20260508213029 74 227 2.6 6.1 0.00 0.00 0.00 44 989.7
20260508210030 72 247 1.7 7.8 0.00 0.00 0.00 48 989.9
20260508203030 71 210 2.6 5.2 0.00 0.00 0.00 57 990.2
20260508193029 70 220 0.0 5.2 0.00 0.00 0.00 61 991.1
20260508190028 69 227 2.6 5.2 0.00 0.00 0.00 56 991.1
20260508183028 70 225 1.7 3.5 0.00 0.00 0.00 58 991.4
20260508180029 68 226 1.7 3.5 0.00 0.00 0.00 60 991.7
20260508173030 69 226 1.7 3.5 0.00 0.00 0.00 62 991.9
20260508163030 65 227 0.0 3.5 0.00 0.00 0.00 72 993.1
20260508160029 64 227 0.0 3.5 0.00 0.00 0.00 75 993.3
20260508150029 61 227 1.7 6.1 0.00 0.00 0.00 78 993.5
20260508143028 59 188 0.9 4.3 0.00 0.00 0.00 84 993.6
20260508140029 58 185 0.9 3.5 0.00 0.00 0.00 89 993.9